Paynesville, MN

11:03 AM CDT on April 30, 2017 (GMT -0500)
Paynesville

Weather History for KPEX - April, 2014

Change the Weather History Date:

Thursday, April 3, 2014

  Actual Average (KLJF) Record (KLJF)
Temperature  
Mean Temperature 30 °F -  
Max Temperature 34 °F 49 °F 75 °F (1981)
Min Temperature 27 °F 28 °F 2 °F (1975)
Degree Days  
Heating Degree Days 34    
Moisture  
Dew Point 26 °F    
Average Humidity 82    
Maximum Humidity 96    
Minimum Humidity 61    
Precipitation  
Precipitation 0.07 in - - ()
Sea Level Pressure  
Sea Level Pressure 29.93 in    
Wind  
Wind Speed 9 mph (NE)    
Max Wind Speed 14 mph    
Max Gust Speed 22 mph    
Visibility 6 miles    
Events Snow    
Averages and records for this station are not official NWS values.
T = Trace of Precipitation, MM = Missing Value Source: NWS Daily Summary

Daily Weather History Graph

Daily Weather History Graph

Search for Another Location

Airport or City:

Trip Planner

Search our weather history database for the weather conditions in past years. The results will help you decide how hot, cold, wet, or windy it might be!

Date:

Astronomy

Apr. 03, 2014 Rise Set
Actual Time 6:55 AM CDT 7:49 PM CDT
Civil Twilight 6:25 AM CDT 8:19 PM CDT
Nautical Twilight 5:49 AM CDT 8:55 PM CDT
Astronomical Twilight 5:12 AM CDT 9:33 PM CDT
Moon 9:15 AM CDT (4/3) No Moon Set
Length of Visible Light 13h 54m
Length of Day
12h 54m
Waxing Crescent, 17% of the Moon is Illuminated
Apr 3
Waxing Crescent
Apr 7
First Quarter
Apr 15
Full
Apr 22
Last Quarter
Apr 29
New

Hourly Weather History & Observations

Time (CDT) Temp. Windchill Dew Point Humidity Pressure Visibility Wind Dir Wind Speed Gust Speed Precip Events Conditions
12:12 AM 33.4 °F 26.6 °F 22.8 °F 65% 30.06 in 10.0 mi NNE 8.1 mph - N/A   Overcast
12:13 AM 33.4 °F 27.3 °F 22.8 °F 65% 30.06 in 10.0 mi NNE 6.9 mph - N/A   Overcast
12:52 AM 33.8 °F 30.8 °F 22.1 °F 62% 30.06 in 10.0 mi ENE 3.5 mph - N/A   Overcast
1:13 AM 33.8 °F 26.4 °F 22.6 °F 64% 30.04 in 10.0 mi NE 9.2 mph - N/A   Overcast
1:32 AM 34.0 °F 26.6 °F 22.1 °F 62% 30.04 in 10.0 mi NE 9.2 mph - N/A   Overcast
1:52 AM 34.2 °F 26.2 °F 22.1 °F 61% 30.02 in 10.0 mi ENE 10.4 mph - N/A   Overcast
2:12 AM 34.7 °F 26.4 °F 22.5 °F 61% 30.00 in 10.0 mi NE 11.5 mph - N/A   Overcast
2:26 AM 34.7 °F 27.5 °F 22.8 °F 62% 29.99 in 10.0 mi ENE 9.2 mph - N/A   Overcast
3:27 AM 34.2 °F 27.5 °F 23.0 °F 64% 30.00 in 10.0 mi ENE 8.1 mph - N/A   Overcast
3:32 AM 34.2 °F 27.5 °F 23.0 °F 64% 30.00 in 10.0 mi NE 8.1 mph - N/A   Overcast
3:53 AM 34.0 °F 26.0 °F 22.6 °F 63% 29.99 in 10.0 mi NE 10.4 mph - N/A   Overcast
4:12 AM 33.8 °F 26.4 °F 22.6 °F 64% 29.99 in 10.0 mi ENE 9.2 mph - N/A   Overcast
4:32 AM 33.8 °F 27.0 °F 22.8 °F 64% 29.99 in 10.0 mi ENE 8.1 mph - N/A   Overcast
4:52 AM 33.8 °F 27.0 °F 23.0 °F 65% 29.99 in 10.0 mi ENE 8.1 mph - N/A   Overcast
5:12 AM 33.8 °F 25.8 °F 23.7 °F 67% 29.99 in 10.0 mi East 10.4 mph - N/A   Overcast
5:32 AM 33.8 °F 28.6 °F 24.4 °F 69% 29.98 in 10.0 mi ENE 5.8 mph 9.2 mph N/A   Overcast
5:52 AM 33.6 °F 26.2 °F 24.6 °F 70% 29.97 in 10.0 mi ENE 9.2 mph - N/A   Overcast
6:12 AM 33.6 °F 25.0 °F 24.6 °F 70% 29.97 in 10.0 mi ENE 11.5 mph - N/A   Overcast
6:32 AM 33.4 °F 25.9 °F 24.3 °F 69% 29.97 in 10.0 mi ENE 9.2 mph - N/A   Overcast
6:53 AM 33.1 °F 25.5 °F 24.6 °F 71% 29.96 in 10.0 mi ENE 9.2 mph - N/A   Overcast
7:12 AM 33.3 °F 26.4 °F 24.6 °F 71% 29.97 in 10.0 mi ENE 8.1 mph - N/A   Overcast
7:31 AM 33.8 °F 27.7 °F 24.6 °F 69% 29.97 in 10.0 mi ENE 6.9 mph - N/A   Overcast
7:52 AM 33.8 °F 27.0 °F 24.4 °F 69% 29.98 in 10.0 mi ENE 8.1 mph - N/A   Overcast
8:12 AM 33.8 °F 26.4 °F 24.6 °F 69% 29.97 in 10.0 mi ENE 9.2 mph - N/A   Overcast
8:32 AM 33.8 °F 25.8 °F 25.2 °F 71% 29.96 in 10.0 mi ENE 10.4 mph - N/A   Overcast
8:52 AM 33.8 °F 25.8 °F 25.5 °F 72% 29.94 in 10.0 mi ENE 10.4 mph - N/A   Overcast
9:12 AM 33.8 °F 26.4 °F 26.2 °F 74% 29.94 in 10.0 mi NE 9.2 mph 17.3 mph N/A   Overcast
9:33 AM 32.5 °F 23.2 °F 28.0 °F 83% 29.94 in 10.0 mi NE 12.7 mph - N/A   Overcast
9:52 AM 32.9 °F 24.7 °F 27.7 °F 81% 29.94 in 10.0 mi NE 10.4 mph - N/A   Overcast
10:12 AM 32.9 °F 24.7 °F 27.5 °F 81% 29.94 in 10.0 mi NE 10.4 mph - N/A   Overcast
10:33 AM 33.1 °F 24.4 °F 28.4 °F 83% 29.94 in 10.0 mi ENE 11.5 mph 18.4 mph N/A   Overcast
10:52 AM 32.2 °F 23.2 °F 28.4 °F 86% 29.94 in 5.0 mi NE 11.5 mph 16.1 mph N/A   Overcast
11:12 AM 32.0 °F 23.0 °F 29.7 °F 91% 29.93 in 2.0 mi ENE 11.5 mph - N/A   Overcast
11:33 AM 32.0 °F 23.0 °F 30.6 °F 94% 29.92 in 3.0 mi NE 11.5 mph - N/A   Overcast
11:52 AM 32.0 °F 22.1 °F 30.6 °F 94% 29.91 in 10.0 mi NE 13.8 mph 18.4 mph N/A   Overcast
12:12 PM 32.0 °F 22.5 °F 30.2 °F 93% 29.91 in 10.0 mi ENE 12.7 mph 17.3 mph N/A   Overcast
12:32 PM 32.0 °F 24.2 °F 30.0 °F 92% 29.93 in 10.0 mi ENE 9.2 mph - N/A   Overcast
12:52 PM 32.0 °F 23.6 °F 30.0 °F 92% 29.92 in 3.0 mi ENE 10.4 mph - N/A   Overcast
1:12 PM 32.2 °F 25.0 °F 30.7 °F 94% 29.92 in 2.0 mi ENE 8.1 mph - N/A   Overcast
1:32 PM 32.2 °F 24.4 °F 30.7 °F 94% 29.91 in 2.0 mi ENE 9.2 mph - N/A Snow Light Snow
1:53 PM 32.0 °F 24.2 °F 30.7 °F 95% 29.91 in 2.0 mi ENE 9.2 mph - N/A Snow Light Snow
2:11 PM 32.0 °F 24.2 °F 30.7 °F 95% 29.90 in 1.0 mi NE 9.2 mph - N/A Snow Light Snow
2:32 PM 32.0 °F 24.8 °F 30.6 °F 94% 29.90 in 1.2 mi NE 8.1 mph - N/A Snow Light Snow
2:52 PM 31.5 °F 24.9 °F 30.2 °F 95% 29.89 in 1.0 mi NNE 6.9 mph - 0.02 in Snow Light Snow
3:12 PM 31.1 °F 23.7 °F 30.2 °F 96% 29.87 in 1.5 mi NNE 8.1 mph - N/A Snow Light Snow
3:32 PM 31.3 °F 24.7 °F 30.2 °F 96% 29.87 in 2.0 mi NNE 6.9 mph - N/A Snow Light Snow
3:52 PM 31.1 °F 22.4 °F 30.0 °F 96% 29.88 in 1.2 mi NNE 10.4 mph - 0.02 in Snow Light Snow
4:12 PM 31.1 °F 23.1 °F 30.0 °F 96% 29.87 in 1.2 mi NNE 9.2 mph - 0.02 in Snow Light Snow
4:32 PM 30.9 °F 22.2 °F 29.8 °F 96% 29.87 in 0.5 mi NNE 10.4 mph - 0.03 in Snow Light Snow
4:52 PM 30.2 °F 20.2 °F 28.9 °F 95% 29.86 in 0.8 mi North 12.7 mph 16.1 mph 0.03 in Snow Light Snow
5:12 PM 30.0 °F 20.5 °F 28.6 °F 94% 29.87 in 0.8 mi North 11.5 mph - N/A Snow Light Snow
5:52 PM 29.7 °F 20.1 °F 28.4 °F 95% 29.88 in 0.5 mi North 11.5 mph - N/A Snow Light Snow
6:12 PM 29.3 °F 18.6 °F 27.9 °F 94% 29.89 in 0.8 mi NNE 13.8 mph 20.7 mph N/A Snow Light Snow
6:52 PM 28.8 °F 17.9 °F 27.3 °F 94% 29.89 in 1.5 mi NNE 13.8 mph - N/A Snow Light Snow
7:12 PM 28.4 °F 17.5 °F 27.1 °F 95% 29.89 in 1.0 mi NNE 13.8 mph 18.4 mph N/A Snow Light Snow
7:32 PM 28.4 °F 18.0 °F 27.0 °F 94% 29.89 in 1.2 mi NNE 12.7 mph 17.3 mph N/A Snow Light Snow
7:52 PM 27.9 °F 17.3 °F 26.4 °F 94% 29.89 in 1.5 mi NNE 12.7 mph 21.9 mph N/A Snow Light Snow
8:12 PM 27.5 °F 16.3 °F 26.1 °F 94% 29.89 in 2.5 mi NNE 13.8 mph 18.4 mph N/A Snow Light Snow
8:32 PM 27.5 °F 16.8 °F 25.7 °F 93% 29.88 in 4.0 mi NNE 12.7 mph 18.4 mph N/A Snow Light Snow
8:52 PM 27.5 °F 16.3 °F 25.7 °F 93% 29.88 in 4.0 mi NNE 13.8 mph 19.6 mph N/A Snow Light Snow
9:12 PM 27.3 °F 16.6 °F 25.2 °F 92% 29.88 in 7.0 mi NNE 12.7 mph - N/A Snow Light Snow
9:32 PM 27.5 °F 17.4 °F 25.3 °F 92% 29.88 in 4.0 mi NNE 11.5 mph 16.1 mph N/A Snow Light Snow
10:52 PM 27.3 °F 17.1 °F 25.5 °F 93% 29.86 in 4.0 mi NNE 11.5 mph - N/A Snow Light Snow
11:11 PM 27.1 °F 16.4 °F 25.3 °F 93% 29.85 in 3.0 mi North 12.7 mph 17.3 mph N/A Snow Light Snow
11:31 PM 27.1 °F 16.9 °F 25.3 °F 93% 29.85 in 2.5 mi North 11.5 mph - N/A Snow Light Snow
11:52 PM 27.1 °F 18.2 °F 25.3 °F 93% 29.86 in 3.0 mi North 9.2 mph - N/A Snow Light Snow